Index of /20260415/WXO-DD/model_rdps/10km/12/083
Name Last modified Size Description
Parent Directory -
20260415T12Z_MSC_RDPS_AbsoluteVorticity_IsbL-0250_RLatLon0.09_PT083H.grib2 2026-04-15 15:04 607K
20260415T12Z_MSC_RDPS_AbsoluteVorticity_IsbL-0500_RLatLon0.09_PT083H.grib2 2026-04-15 15:04 550K
20260415T12Z_MSC_RDPS_AbsoluteVorticity_IsbL-0700_RLatLon0.09_PT083H.grib2 2026-04-15 15:04 615K
20260415T12Z_MSC_RDPS_AbsoluteVorticity_IsbL-0850_RLatLon0.09_PT083H.grib2 2026-04-15 15:04 780K
20260415T12Z_MSC_RDPS_AirTemp_AGL-120m_RLatLon0.09_PT083H.grib2 2026-04-15 15:04 391K
20260415T12Z_MSC_RDPS_AirTemp_AGL-2m_RLatLon0.09_PT083H.grib2 2026-04-15 15:04 624K
20260415T12Z_MSC_RDPS_AirTemp_AGL-40m_RLatLon0.09_PT083H.grib2 2026-04-15 15:04 400K
20260415T12Z_MSC_RDPS_AirTemp_AGL-80m_RLatLon0.09_PT083H.grib2 2026-04-15 15:04 395K
20260415T12Z_MSC_RDPS_AirTemp_IsbL-0001_RLatLon0.09_PT083H.grib2 2026-04-15 15:04 308K
20260415T12Z_MSC_RDPS_AirTemp_IsbL-0005_RLatLon0.09_PT083H.grib2 2026-04-15 15:04 332K
20260415T12Z_MSC_RDPS_AirTemp_IsbL-0010_RLatLon0.09_PT083H.grib2 2026-04-15 15:04 304K
20260415T12Z_MSC_RDPS_AirTemp_IsbL-0020_RLatLon0.09_PT083H.grib2 2026-04-15 15:04 324K
20260415T12Z_MSC_RDPS_AirTemp_IsbL-0030_RLatLon0.09_PT083H.grib2 2026-04-15 15:04 379K
20260415T12Z_MSC_RDPS_AirTemp_IsbL-0050_RLatLon0.09_PT083H.grib2 2026-04-15 15:04 321K
20260415T12Z_MSC_RDPS_AirTemp_IsbL-0100_RLatLon0.09_PT083H.grib2 2026-04-15 15:04 419K
20260415T12Z_MSC_RDPS_AirTemp_IsbL-0150_RLatLon0.09_PT083H.grib2 2026-04-15 15:04 411K
20260415T12Z_MSC_RDPS_AirTemp_IsbL-0175_RLatLon0.09_PT083H.grib2 2026-04-15 15:04 412K
20260415T12Z_MSC_RDPS_AirTemp_IsbL-0200_RLatLon0.09_PT083H.grib2 2026-04-15 15:04 415K
20260415T12Z_MSC_RDPS_AirTemp_IsbL-0225_RLatLon0.09_PT083H.grib2 2026-04-15 15:04 416K
20260415T12Z_MSC_RDPS_AirTemp_IsbL-0250_RLatLon0.09_PT083H.grib2 2026-04-15 15:04 425K
20260415T12Z_MSC_RDPS_AirTemp_IsbL-0275_RLatLon0.09_PT083H.grib2 2026-04-15 15:04 405K
20260415T12Z_MSC_RDPS_AirTemp_IsbL-0300_RLatLon0.09_PT083H.grib2 2026-04-15 15:04 407K
20260415T12Z_MSC_RDPS_AirTemp_IsbL-0350_RLatLon0.09_PT083H.grib2 2026-04-15 15:04 417K
20260415T12Z_MSC_RDPS_AirTemp_IsbL-0400_RLatLon0.09_PT083H.grib2 2026-04-15 15:04 384K
20260415T12Z_MSC_RDPS_AirTemp_IsbL-0450_RLatLon0.09_PT083H.grib2 2026-04-15 15:04 390K
20260415T12Z_MSC_RDPS_AirTemp_IsbL-0500_RLatLon0.09_PT083H.grib2 2026-04-15 15:04 402K
20260415T12Z_MSC_RDPS_AirTemp_IsbL-0550_RLatLon0.09_PT083H.grib2 2026-04-15 15:04 421K
20260415T12Z_MSC_RDPS_AirTemp_IsbL-0600_RLatLon0.09_PT083H.grib2 2026-04-15 15:04 440K
20260415T12Z_MSC_RDPS_AirTemp_IsbL-0650_RLatLon0.09_PT083H.grib2 2026-04-15 15:04 457K
20260415T12Z_MSC_RDPS_AirTemp_IsbL-0700_RLatLon0.09_PT083H.grib2 2026-04-15 15:04 485K
20260415T12Z_MSC_RDPS_AirTemp_IsbL-0750_RLatLon0.09_PT083H.grib2 2026-04-15 15:04 412K
20260415T12Z_MSC_RDPS_AirTemp_IsbL-0800_RLatLon0.09_PT083H.grib2 2026-04-15 15:04 454K
20260415T12Z_MSC_RDPS_AirTemp_IsbL-0850_RLatLon0.09_PT083H.grib2 2026-04-15 15:04 502K
20260415T12Z_MSC_RDPS_AirTemp_IsbL-0875_RLatLon0.09_PT083H.grib2 2026-04-15 15:04 532K
20260415T12Z_MSC_RDPS_AirTemp_IsbL-0900_RLatLon0.09_PT083H.grib2 2026-04-15 15:04 537K
20260415T12Z_MSC_RDPS_AirTemp_IsbL-0925_RLatLon0.09_PT083H.grib2 2026-04-15 15:04 523K
20260415T12Z_MSC_RDPS_AirTemp_IsbL-0950_RLatLon0.09_PT083H.grib2 2026-04-15 15:04 527K
20260415T12Z_MSC_RDPS_AirTemp_IsbL-0970_RLatLon0.09_PT083H.grib2 2026-04-15 15:04 522K
20260415T12Z_MSC_RDPS_AirTemp_IsbL-0985_RLatLon0.09_PT083H.grib2 2026-04-15 15:04 516K
20260415T12Z_MSC_RDPS_AirTemp_IsbL-1000_RLatLon0.09_PT083H.grib2 2026-04-15 15:04 506K
20260415T12Z_MSC_RDPS_AirTemp_IsbL-1015_RLatLon0.09_PT083H.grib2 2026-04-15 15:04 504K
20260415T12Z_MSC_RDPS_Albedo_Sfc_RLatLon0.09_PT083H.grib2 2026-04-15 15:04 161K
20260415T12Z_MSC_RDPS_CAPE_Sfc_RLatLon0.09_PT083H.grib2 2026-04-15 15:04 1.7M
20260415T12Z_MSC_RDPS_CIN_Sfc_RLatLon0.09_PT083H.grib2 2026-04-15 15:04 1.3M
20260415T12Z_MSC_RDPS_CloudWater_EAtm_RLatLon0.09_PT083H.grib2 2026-04-15 15:04 214K
20260415T12Z_MSC_RDPS_ConvectivePrecip-Accum_Sfc_RLatLon0.09_PT083H.grib2 2026-04-15 15:04 1.3M
20260415T12Z_MSC_RDPS_DewPointDepression_AGL-2m_RLatLon0.09_PT083H.grib2 2026-04-15 15:04 410K
20260415T12Z_MSC_RDPS_DewPointDepression_IsbL-0001_RLatLon0.09_PT083H.grib2 2026-04-15 15:04 193
20260415T12Z_MSC_RDPS_DewPointDepression_IsbL-0005_RLatLon0.09_PT083H.grib2 2026-04-15 15:04 193
20260415T12Z_MSC_RDPS_DewPointDepression_IsbL-0010_RLatLon0.09_PT083H.grib2 2026-04-15 15:04 193
20260415T12Z_MSC_RDPS_DewPointDepression_IsbL-0020_RLatLon0.09_PT083H.grib2 2026-04-15 15:04 193
20260415T12Z_MSC_RDPS_DewPointDepression_IsbL-0030_RLatLon0.09_PT083H.grib2 2026-04-15 15:04 193
20260415T12Z_MSC_RDPS_DewPointDepression_IsbL-0050_RLatLon0.09_PT083H.grib2 2026-04-15 15:04 116K
20260415T12Z_MSC_RDPS_DewPointDepression_IsbL-0100_RLatLon0.09_PT083H.grib2 2026-04-15 15:04 123K
20260415T12Z_MSC_RDPS_DewPointDepression_IsbL-0150_RLatLon0.09_PT083H.grib2 2026-04-15 15:04 145K
20260415T12Z_MSC_RDPS_DewPointDepression_IsbL-0175_RLatLon0.09_PT083H.grib2 2026-04-15 15:04 178K
20260415T12Z_MSC_RDPS_DewPointDepression_IsbL-0200_RLatLon0.09_PT083H.grib2 2026-04-15 15:04 211K
20260415T12Z_MSC_RDPS_DewPointDepression_IsbL-0225_RLatLon0.09_PT083H.grib2 2026-04-15 15:04 251K
20260415T12Z_MSC_RDPS_DewPointDepression_IsbL-0250_RLatLon0.09_PT083H.grib2 2026-04-15 15:04 294K
20260415T12Z_MSC_RDPS_DewPointDepression_IsbL-0275_RLatLon0.09_PT083H.grib2 2026-04-15 15:04 298K
20260415T12Z_MSC_RDPS_DewPointDepression_IsbL-0300_RLatLon0.09_PT083H.grib2 2026-04-15 15:04 312K
20260415T12Z_MSC_RDPS_DewPointDepression_IsbL-0350_RLatLon0.09_PT083H.grib2 2026-04-15 15:04 318K
20260415T12Z_MSC_RDPS_DewPointDepression_IsbL-0400_RLatLon0.09_PT083H.grib2 2026-04-15 15:04 334K
20260415T12Z_MSC_RDPS_DewPointDepression_IsbL-0450_RLatLon0.09_PT083H.grib2 2026-04-15 15:04 345K
20260415T12Z_MSC_RDPS_DewPointDepression_IsbL-0500_RLatLon0.09_PT083H.grib2 2026-04-15 15:04 349K
20260415T12Z_MSC_RDPS_DewPointDepression_IsbL-0550_RLatLon0.09_PT083H.grib2 2026-04-15 15:04 359K
20260415T12Z_MSC_RDPS_DewPointDepression_IsbL-0600_RLatLon0.09_PT083H.grib2 2026-04-15 15:04 371K
20260415T12Z_MSC_RDPS_DewPointDepression_IsbL-0650_RLatLon0.09_PT083H.grib2 2026-04-15 15:04 383K
20260415T12Z_MSC_RDPS_DewPointDepression_IsbL-0700_RLatLon0.09_PT083H.grib2 2026-04-15 15:04 402K
20260415T12Z_MSC_RDPS_DewPointDepression_IsbL-0750_RLatLon0.09_PT083H.grib2 2026-04-15 15:04 428K
20260415T12Z_MSC_RDPS_DewPointDepression_IsbL-0800_RLatLon0.09_PT083H.grib2 2026-04-15 15:04 454K
20260415T12Z_MSC_RDPS_DewPointDepression_IsbL-0850_RLatLon0.09_PT083H.grib2 2026-04-15 15:04 476K
20260415T12Z_MSC_RDPS_DewPointDepression_IsbL-0875_RLatLon0.09_PT083H.grib2 2026-04-15 15:04 476K
20260415T12Z_MSC_RDPS_DewPointDepression_IsbL-0900_RLatLon0.09_PT083H.grib2 2026-04-15 15:04 467K
20260415T12Z_MSC_RDPS_DewPointDepression_IsbL-0925_RLatLon0.09_PT083H.grib2 2026-04-15 15:04 455K
20260415T12Z_MSC_RDPS_DewPointDepression_IsbL-0950_RLatLon0.09_PT083H.grib2 2026-04-15 15:04 443K
20260415T12Z_MSC_RDPS_DewPointDepression_IsbL-0970_RLatLon0.09_PT083H.grib2 2026-04-15 15:04 433K
20260415T12Z_MSC_RDPS_DewPointDepression_IsbL-0985_RLatLon0.09_PT083H.grib2 2026-04-15 15:04 428K
20260415T12Z_MSC_RDPS_DewPointDepression_IsbL-1000_RLatLon0.09_PT083H.grib2 2026-04-15 15:04 425K
20260415T12Z_MSC_RDPS_DewPointDepression_IsbL-1015_RLatLon0.09_PT083H.grib2 2026-04-15 15:04 415K
20260415T12Z_MSC_RDPS_DewPoint_AGL-2m_RLatLon0.09_PT083H.grib2 2026-04-15 15:04 397K
20260415T12Z_MSC_RDPS_DownwardLongwaveRadiationFlux-Accum_Sfc_RLatLon0.09_PT083H.grib2 2026-04-15 15:04 440K
20260415T12Z_MSC_RDPS_DownwardShortwaveRadiationFlux-Accum_NTAtm_RLatLon0.09_PT083H.grib2 2026-04-15 15:04 134K
20260415T12Z_MSC_RDPS_DownwardShortwaveRadiationFlux-Accum_Sfc_RLatLon0.09_PT083H.grib2 2026-04-15 15:04 497K
20260415T12Z_MSC_RDPS_FreezingRain-Accum1h_Sfc_RLatLon0.09_PT083H.grib2 2026-04-15 15:04 19K
20260415T12Z_MSC_RDPS_FreezingRain-Accum_Sfc_RLatLon0.09_PT083H.grib2 2026-04-15 15:04 174K
20260415T12Z_MSC_RDPS_GeopotentialHeight_IsbL-0001_RLatLon0.09_PT083H.grib2 2026-04-15 15:04 269K
20260415T12Z_MSC_RDPS_GeopotentialHeight_IsbL-0005_RLatLon0.09_PT083H.grib2 2026-04-15 15:04 234K
20260415T12Z_MSC_RDPS_GeopotentialHeight_IsbL-0010_RLatLon0.09_PT083H.grib2 2026-04-15 15:04 308K
20260415T12Z_MSC_RDPS_GeopotentialHeight_IsbL-0020_RLatLon0.09_PT083H.grib2 2026-04-15 15:04 336K
20260415T12Z_MSC_RDPS_GeopotentialHeight_IsbL-0030_RLatLon0.09_PT083H.grib2 2026-04-15 15:04 338K
20260415T12Z_MSC_RDPS_GeopotentialHeight_IsbL-0050_RLatLon0.09_PT083H.grib2 2026-04-15 15:04 309K
20260415T12Z_MSC_RDPS_GeopotentialHeight_IsbL-0100_RLatLon0.09_PT083H.grib2 2026-04-15 15:04 285K
20260415T12Z_MSC_RDPS_GeopotentialHeight_IsbL-0150_RLatLon0.09_PT083H.grib2 2026-04-15 15:04 259K
20260415T12Z_MSC_RDPS_GeopotentialHeight_IsbL-0175_RLatLon0.09_PT083H.grib2 2026-04-15 15:04 261K
20260415T12Z_MSC_RDPS_GeopotentialHeight_IsbL-0200_RLatLon0.09_PT083H.grib2 2026-04-15 15:04 263K
20260415T12Z_MSC_RDPS_GeopotentialHeight_IsbL-0225_RLatLon0.09_PT083H.grib2 2026-04-15 15:04 265K
20260415T12Z_MSC_RDPS_GeopotentialHeight_IsbL-0250_RLatLon0.09_PT083H.grib2 2026-04-15 15:04 266K
20260415T12Z_MSC_RDPS_GeopotentialHeight_IsbL-0275_RLatLon0.09_PT083H.grib2 2026-04-15 15:04 264K
20260415T12Z_MSC_RDPS_GeopotentialHeight_IsbL-0300_RLatLon0.09_PT083H.grib2 2026-04-15 15:04 263K
20260415T12Z_MSC_RDPS_GeopotentialHeight_IsbL-0350_RLatLon0.09_PT083H.grib2 2026-04-15 15:04 229K
20260415T12Z_MSC_RDPS_GeopotentialHeight_IsbL-0400_RLatLon0.09_PT083H.grib2 2026-04-15 15:04 225K
20260415T12Z_MSC_RDPS_GeopotentialHeight_IsbL-0450_RLatLon0.09_PT083H.grib2 2026-04-15 15:04 293K
20260415T12Z_MSC_RDPS_GeopotentialHeight_IsbL-0500_RLatLon0.09_PT083H.grib2 2026-04-15 15:04 288K
20260415T12Z_MSC_RDPS_GeopotentialHeight_IsbL-0550_RLatLon0.09_PT083H.grib2 2026-04-15 15:04 285K
20260415T12Z_MSC_RDPS_GeopotentialHeight_IsbL-0600_RLatLon0.09_PT083H.grib2 2026-04-15 15:04 281K
20260415T12Z_MSC_RDPS_GeopotentialHeight_IsbL-0650_RLatLon0.09_PT083H.grib2 2026-04-15 15:04 280K
20260415T12Z_MSC_RDPS_GeopotentialHeight_IsbL-0700_RLatLon0.09_PT083H.grib2 2026-04-15 15:04 281K
20260415T12Z_MSC_RDPS_GeopotentialHeight_IsbL-0750_RLatLon0.09_PT083H.grib2 2026-04-15 15:04 256K
20260415T12Z_MSC_RDPS_GeopotentialHeight_IsbL-0800_RLatLon0.09_PT083H.grib2 2026-04-15 15:04 261K
20260415T12Z_MSC_RDPS_GeopotentialHeight_IsbL-0850_RLatLon0.09_PT083H.grib2 2026-04-15 15:04 269K
20260415T12Z_MSC_RDPS_GeopotentialHeight_IsbL-0875_RLatLon0.09_PT083H.grib2 2026-04-15 15:04 273K
20260415T12Z_MSC_RDPS_GeopotentialHeight_IsbL-0900_RLatLon0.09_PT083H.grib2 2026-04-15 15:04 276K
20260415T12Z_MSC_RDPS_GeopotentialHeight_IsbL-0925_RLatLon0.09_PT083H.grib2 2026-04-15 15:04 278K
20260415T12Z_MSC_RDPS_GeopotentialHeight_IsbL-0950_RLatLon0.09_PT083H.grib2 2026-04-15 15:04 282K
20260415T12Z_MSC_RDPS_GeopotentialHeight_IsbL-0970_RLatLon0.09_PT083H.grib2 2026-04-15 15:04 286K
20260415T12Z_MSC_RDPS_GeopotentialHeight_IsbL-0985_RLatLon0.09_PT083H.grib2 2026-04-15 15:04 292K
20260415T12Z_MSC_RDPS_GeopotentialHeight_IsbL-1000_RLatLon0.09_PT083H.grib2 2026-04-15 15:04 301K
20260415T12Z_MSC_RDPS_GeopotentialHeight_IsbL-1015_RLatLon0.09_PT083H.grib2 2026-04-15 15:04 313K
20260415T12Z_MSC_RDPS_Humidex_Sfc_RLatLon0.09_PT083H.grib2 2026-04-15 15:04 2.4M
20260415T12Z_MSC_RDPS_IcePellets-Accum1h_Sfc_RLatLon0.09_PT083H.grib2 2026-04-15 15:04 6.2K
20260415T12Z_MSC_RDPS_IcePellets-Accum_Sfc_RLatLon0.09_PT083H.grib2 2026-04-15 15:04 54K
20260415T12Z_MSC_RDPS_KIndex_Sfc_RLatLon0.09_PT083H.grib2 2026-04-15 15:04 2.5M
20260415T12Z_MSC_RDPS_LatentHeatNetFlux_Sfc_RLatLon0.09_PT083H.grib2 2026-04-15 15:04 272K
20260415T12Z_MSC_RDPS_LiftedIndex-MU-VT_IsbL-0500_RLatLon0.09_PT083H.grib2 2026-04-15 15:04 2.4M
20260415T12Z_MSC_RDPS_NetLongwaveRadiationFlux-Accum_Sfc_RLatLon0.09_PT083H.grib2 2026-04-15 15:04 449K
20260415T12Z_MSC_RDPS_NetShortwaveRadiationFlux-Accum_Sfc_RLatLon0.09_PT083H.grib2 2026-04-15 15:04 510K
20260415T12Z_MSC_RDPS_PlanetaryBoundaryLayerHeight_Sfc_RLatLon0.09_PT083H.grib2 2026-04-15 15:04 1.0M
20260415T12Z_MSC_RDPS_Precip-Accum1h_Sfc_RLatLon0.09_PT083H.grib2 2026-04-15 15:04 1.2M
20260415T12Z_MSC_RDPS_Precip-Accum_Sfc_RLatLon0.09_PT083H.grib2 2026-04-15 15:04 2.2M
20260415T12Z_MSC_RDPS_PrecipRate_Sfc_RLatLon0.09_PT083H.grib2 2026-04-15 15:04 175K
20260415T12Z_MSC_RDPS_PrecipType-Instant_Sfc_RLatLon0.09_PT083H.grib2 2026-04-15 15:04 552K
20260415T12Z_MSC_RDPS_Pressure-Trend3h_Sfc_RLatLon0.09_PT083H.grib2 2026-04-15 15:04 1.2M
20260415T12Z_MSC_RDPS_Pressure_MSL_RLatLon0.09_PT083H.grib2 2026-04-15 15:04 328K
20260415T12Z_MSC_RDPS_Pressure_PVU-1.5_RLatLon0.09_PT083H.grib2 2026-04-15 15:04 2.3M
20260415T12Z_MSC_RDPS_Pressure_PVU-1_RLatLon0.09_PT083H.grib2 2026-04-15 15:04 2.4M
20260415T12Z_MSC_RDPS_Pressure_PVU-2_RLatLon0.09_PT083H.grib2 2026-04-15 15:04 2.4M
20260415T12Z_MSC_RDPS_Pressure_Sfc_RLatLon0.09_PT083H.grib2 2026-04-15 15:04 499K
20260415T12Z_MSC_RDPS_RadiativeTemp_Sfc_RLatLon0.09_PT083H.grib2 2026-04-15 15:04 319K
20260415T12Z_MSC_RDPS_Rain-Accum1h_Sfc_RLatLon0.09_PT083H.grib2 2026-04-15 15:04 560K
20260415T12Z_MSC_RDPS_Rain-Accum_Sfc_RLatLon0.09_PT083H.grib2 2026-04-15 15:04 1.7M
20260415T12Z_MSC_RDPS_RelativeHumidity_AGL-2m_RLatLon0.09_PT083H.grib2 2026-04-15 15:04 1.0M
20260415T12Z_MSC_RDPS_RelativeHumidity_IsbL-0010_RLatLon0.09_PT083H.grib2 2026-04-15 15:04 630K
20260415T12Z_MSC_RDPS_RelativeHumidity_IsbL-0020_RLatLon0.09_PT083H.grib2 2026-04-15 15:04 531K
20260415T12Z_MSC_RDPS_RelativeHumidity_IsbL-0030_RLatLon0.09_PT083H.grib2 2026-04-15 15:04 463K
20260415T12Z_MSC_RDPS_RelativeHumidity_IsbL-0050_RLatLon0.09_PT083H.grib2 2026-04-15 15:04 259K
20260415T12Z_MSC_RDPS_RelativeHumidity_IsbL-0100_RLatLon0.09_PT083H.grib2 2026-04-15 15:04 257K
20260415T12Z_MSC_RDPS_RelativeHumidity_IsbL-0150_RLatLon0.09_PT083H.grib2 2026-04-15 15:04 391K
20260415T12Z_MSC_RDPS_RelativeHumidity_IsbL-0175_RLatLon0.09_PT083H.grib2 2026-04-15 15:04 475K
20260415T12Z_MSC_RDPS_RelativeHumidity_IsbL-0200_RLatLon0.09_PT083H.grib2 2026-04-15 15:04 550K
20260415T12Z_MSC_RDPS_RelativeHumidity_IsbL-0225_RLatLon0.09_PT083H.grib2 2026-04-15 15:04 617K
20260415T12Z_MSC_RDPS_RelativeHumidity_IsbL-0250_RLatLon0.09_PT083H.grib2 2026-04-15 15:04 685K
20260415T12Z_MSC_RDPS_RelativeHumidity_IsbL-0275_RLatLon0.09_PT083H.grib2 2026-04-15 15:04 702K
20260415T12Z_MSC_RDPS_RelativeHumidity_IsbL-0300_RLatLon0.09_PT083H.grib2 2026-04-15 15:04 738K
20260415T12Z_MSC_RDPS_RelativeHumidity_IsbL-0350_RLatLon0.09_PT083H.grib2 2026-04-15 15:04 754K
20260415T12Z_MSC_RDPS_RelativeHumidity_IsbL-0400_RLatLon0.09_PT083H.grib2 2026-04-15 15:04 772K
20260415T12Z_MSC_RDPS_RelativeHumidity_IsbL-0450_RLatLon0.09_PT083H.grib2 2026-04-15 15:04 781K
20260415T12Z_MSC_RDPS_RelativeHumidity_IsbL-0500_RLatLon0.09_PT083H.grib2 2026-04-15 15:04 783K
20260415T12Z_MSC_RDPS_RelativeHumidity_IsbL-0550_RLatLon0.09_PT083H.grib2 2026-04-15 15:04 815K
20260415T12Z_MSC_RDPS_RelativeHumidity_IsbL-0600_RLatLon0.09_PT083H.grib2 2026-04-15 15:04 825K
20260415T12Z_MSC_RDPS_RelativeHumidity_IsbL-0650_RLatLon0.09_PT083H.grib2 2026-04-15 15:04 855K
20260415T12Z_MSC_RDPS_RelativeHumidity_IsbL-0700_RLatLon0.09_PT083H.grib2 2026-04-15 15:04 876K
20260415T12Z_MSC_RDPS_RelativeHumidity_IsbL-0750_RLatLon0.09_PT083H.grib2 2026-04-15 15:04 930K
20260415T12Z_MSC_RDPS_RelativeHumidity_IsbL-0800_RLatLon0.09_PT083H.grib2 2026-04-15 15:04 1.0M
20260415T12Z_MSC_RDPS_RelativeHumidity_IsbL-0850_RLatLon0.09_PT083H.grib2 2026-04-15 15:04 1.0M
20260415T12Z_MSC_RDPS_RelativeHumidity_IsbL-0875_RLatLon0.09_PT083H.grib2 2026-04-15 15:04 1.1M
20260415T12Z_MSC_RDPS_RelativeHumidity_IsbL-0900_RLatLon0.09_PT083H.grib2 2026-04-15 15:04 1.1M
20260415T12Z_MSC_RDPS_RelativeHumidity_IsbL-0925_RLatLon0.09_PT083H.grib2 2026-04-15 15:04 1.1M
20260415T12Z_MSC_RDPS_RelativeHumidity_IsbL-0950_RLatLon0.09_PT083H.grib2 2026-04-15 15:04 1.1M
20260415T12Z_MSC_RDPS_RelativeHumidity_IsbL-0970_RLatLon0.09_PT083H.grib2 2026-04-15 15:04 1.0M
20260415T12Z_MSC_RDPS_RelativeHumidity_IsbL-0985_RLatLon0.09_PT083H.grib2 2026-04-15 15:04 1.0M
20260415T12Z_MSC_RDPS_RelativeHumidity_IsbL-1000_RLatLon0.09_PT083H.grib2 2026-04-15 15:04 1.0M
20260415T12Z_MSC_RDPS_RelativeHumidity_IsbL-1015_RLatLon0.09_PT083H.grib2 2026-04-15 15:04 1.0M
20260415T12Z_MSC_RDPS_Runoff-Accum_Sfc_RLatLon0.09_PT083H.grib2 2026-04-15 15:04 68K
20260415T12Z_MSC_RDPS_SWEATIndex_Sfc_RLatLon0.09_PT083H.grib2 2026-04-15 15:04 2.4M
20260415T12Z_MSC_RDPS_SeeingIndex_EAtm_RLatLon0.09_PT083H.grib2 2026-04-15 15:04 1.0M
20260415T12Z_MSC_RDPS_SensibleHeatNetFlux_Sfc_RLatLon0.09_PT083H.grib2 2026-04-15 15:04 331K
20260415T12Z_MSC_RDPS_ShowalterIndex_IsbL-0500_RLatLon0.09_PT083H.grib2 2026-04-15 15:04 2.6M
20260415T12Z_MSC_RDPS_SkyTransparencyIndex_EAtm_RLatLon0.09_PT083H.grib2 2026-04-15 15:04 738K
20260415T12Z_MSC_RDPS_Snow-Accum1h_Sfc_RLatLon0.09_PT083H.grib2 2026-04-15 15:04 381K
20260415T12Z_MSC_RDPS_Snow-Accum_Sfc_RLatLon0.09_PT083H.grib2 2026-04-15 15:04 860K
20260415T12Z_MSC_RDPS_SnowDensity_Sfc_RLatLon0.09_PT083H.grib2 2026-04-15 15:04 182K
20260415T12Z_MSC_RDPS_SnowDepth_Sfc_RLatLon0.09_PT083H.grib2 2026-04-15 15:04 737K
20260415T12Z_MSC_RDPS_SoilTemp_DBS-0to10cm_RLatLon0.09_PT083H.grib2 2026-04-15 15:04 243K
20260415T12Z_MSC_RDPS_SoilTemp_Sfc_RLatLon0.09_PT083H.grib2 2026-04-15 15:04 282K
20260415T12Z_MSC_RDPS_SoilVolumetricIceContent_Sfc_RLatLon0.09_PT083H.grib2 2026-04-15 15:04 176K
20260415T12Z_MSC_RDPS_SoilVolumetricWaterContent_DBS-0to10cm_RLatLon0.09_PT083H.grib2 2026-04-15 15:04 246K
20260415T12Z_MSC_RDPS_SoilVolumetricWaterContent_DBS-0to1cm_RLatLon0.09_PT083H.grib2 2026-04-15 15:04 338K
20260415T12Z_MSC_RDPS_SpecificHumidity_AGL-120m_RLatLon0.09_PT083H.grib2 2026-04-15 15:04 479K
20260415T12Z_MSC_RDPS_SpecificHumidity_AGL-2m_RLatLon0.09_PT083H.grib2 2026-04-15 15:04 643K
20260415T12Z_MSC_RDPS_SpecificHumidity_AGL-40m_RLatLon0.09_PT083H.grib2 2026-04-15 15:04 484K
20260415T12Z_MSC_RDPS_SpecificHumidity_AGL-80m_RLatLon0.09_PT083H.grib2 2026-04-15 15:04 480K
20260415T12Z_MSC_RDPS_SpecificHumidity_IsbL-0001_RLatLon0.09_PT083H.grib2 2026-04-15 15:04 304K
20260415T12Z_MSC_RDPS_SpecificHumidity_IsbL-0005_RLatLon0.09_PT083H.grib2 2026-04-15 15:04 331K
20260415T12Z_MSC_RDPS_SpecificHumidity_IsbL-0010_RLatLon0.09_PT083H.grib2 2026-04-15 15:04 367K
20260415T12Z_MSC_RDPS_SpecificHumidity_IsbL-0020_RLatLon0.09_PT083H.grib2 2026-04-15 15:04 471K
20260415T12Z_MSC_RDPS_SpecificHumidity_IsbL-0030_RLatLon0.09_PT083H.grib2 2026-04-15 15:04 412K
20260415T12Z_MSC_RDPS_SpecificHumidity_IsbL-0050_RLatLon0.09_PT083H.grib2 2026-04-15 15:04 449K
20260415T12Z_MSC_RDPS_SpecificHumidity_IsbL-0100_RLatLon0.09_PT083H.grib2 2026-04-15 15:04 377K
20260415T12Z_MSC_RDPS_SpecificHumidity_IsbL-0150_RLatLon0.09_PT083H.grib2 2026-04-15 15:04 446K
20260415T12Z_MSC_RDPS_SpecificHumidity_IsbL-0175_RLatLon0.09_PT083H.grib2 2026-04-15 15:04 434K
20260415T12Z_MSC_RDPS_SpecificHumidity_IsbL-0200_RLatLon0.09_PT083H.grib2 2026-04-15 15:04 445K
20260415T12Z_MSC_RDPS_SpecificHumidity_IsbL-0225_RLatLon0.09_PT083H.grib2 2026-04-15 15:04 448K
20260415T12Z_MSC_RDPS_SpecificHumidity_IsbL-0250_RLatLon0.09_PT083H.grib2 2026-04-15 15:04 552K
20260415T12Z_MSC_RDPS_SpecificHumidity_IsbL-0275_RLatLon0.09_PT083H.grib2 2026-04-15 15:04 460K
20260415T12Z_MSC_RDPS_SpecificHumidity_IsbL-0300_RLatLon0.09_PT083H.grib2 2026-04-15 15:04 524K
20260415T12Z_MSC_RDPS_SpecificHumidity_IsbL-0350_RLatLon0.09_PT083H.grib2 2026-04-15 15:04 514K
20260415T12Z_MSC_RDPS_SpecificHumidity_IsbL-0400_RLatLon0.09_PT083H.grib2 2026-04-15 15:04 500K
20260415T12Z_MSC_RDPS_SpecificHumidity_IsbL-0450_RLatLon0.09_PT083H.grib2 2026-04-15 15:04 557K
20260415T12Z_MSC_RDPS_SpecificHumidity_IsbL-0500_RLatLon0.09_PT083H.grib2 2026-04-15 15:04 491K
20260415T12Z_MSC_RDPS_SpecificHumidity_IsbL-0550_RLatLon0.09_PT083H.grib2 2026-04-15 15:04 564K
20260415T12Z_MSC_RDPS_SpecificHumidity_IsbL-0600_RLatLon0.09_PT083H.grib2 2026-04-15 15:04 616K
20260415T12Z_MSC_RDPS_SpecificHumidity_IsbL-0650_RLatLon0.09_PT083H.grib2 2026-04-15 15:04 539K
20260415T12Z_MSC_RDPS_SpecificHumidity_IsbL-0700_RLatLon0.09_PT083H.grib2 2026-04-15 15:04 587K
20260415T12Z_MSC_RDPS_SpecificHumidity_IsbL-0750_RLatLon0.09_PT083H.grib2 2026-04-15 15:04 646K
20260415T12Z_MSC_RDPS_SpecificHumidity_IsbL-0800_RLatLon0.09_PT083H.grib2 2026-04-15 15:04 727K
20260415T12Z_MSC_RDPS_SpecificHumidity_IsbL-0850_RLatLon0.09_PT083H.grib2 2026-04-15 15:04 797K
20260415T12Z_MSC_RDPS_SpecificHumidity_IsbL-0875_RLatLon0.09_PT083H.grib2 2026-04-15 15:04 821K
20260415T12Z_MSC_RDPS_SpecificHumidity_IsbL-0900_RLatLon0.09_PT083H.grib2 2026-04-15 15:04 694K
20260415T12Z_MSC_RDPS_SpecificHumidity_IsbL-0925_RLatLon0.09_PT083H.grib2 2026-04-15 15:04 695K
20260415T12Z_MSC_RDPS_SpecificHumidity_IsbL-0950_RLatLon0.09_PT083H.grib2 2026-04-15 15:04 692K
20260415T12Z_MSC_RDPS_SpecificHumidity_IsbL-0970_RLatLon0.09_PT083H.grib2 2026-04-15 15:04 683K
20260415T12Z_MSC_RDPS_SpecificHumidity_IsbL-0985_RLatLon0.09_PT083H.grib2 2026-04-15 15:04 675K
20260415T12Z_MSC_RDPS_SpecificHumidity_IsbL-1000_RLatLon0.09_PT083H.grib2 2026-04-15 15:04 667K
20260415T12Z_MSC_RDPS_SpecificHumidity_IsbL-1015_RLatLon0.09_PT083H.grib2 2026-04-15 15:04 657K
20260415T12Z_MSC_RDPS_SpecificHumidity_Sfc_RLatLon0.09_PT083H.grib2 2026-04-15 15:04 326K
20260415T12Z_MSC_RDPS_StormRelativeHelicity_EtaL-10000_RLatLon0.09_PT083H.grib2 2026-04-15 15:04 1.1M
20260415T12Z_MSC_RDPS_StormSeverityIndex_EtaL-10000_RLatLon0.09_PT083H.grib2 2026-04-15 15:04 1.2M
20260415T12Z_MSC_RDPS_Thickness_IsbL-0850to0700_RLatLon0.09_PT083H.grib2 2026-04-15 15:04 178K
20260415T12Z_MSC_RDPS_Thickness_IsbL-1000to0500_RLatLon0.09_PT083H.grib2 2026-04-15 15:04 201K
20260415T12Z_MSC_RDPS_Thickness_IsbL-1000to0850_RLatLon0.09_PT083H.grib2 2026-04-15 15:04 185K
20260415T12Z_MSC_RDPS_TotalCloudCover_Sfc_RLatLon0.09_PT083H.grib2 2026-04-15 15:04 661K
20260415T12Z_MSC_RDPS_TotalTotalsIndex_Sfc_RLatLon0.09_PT083H.grib2 2026-04-15 15:04 2.6M
20260415T12Z_MSC_RDPS_UVIndex-ClearSky_Sfc_RLatLon0.09_PT083H.grib2 2026-04-15 15:04 190K
20260415T12Z_MSC_RDPS_UVIndex_Sfc_RLatLon0.09_PT083H.grib2 2026-04-15 15:04 415K
20260415T12Z_MSC_RDPS_UpwardLongwaveRadiationFlux_NTAtm_RLatLon0.09_PT083H.grib2 2026-04-15 15:04 495K
20260415T12Z_MSC_RDPS_UpwardShortwaveRadiationFlux_NTAtm_RLatLon0.09_PT083H.grib2 2026-04-15 15:04 380K
20260415T12Z_MSC_RDPS_VerticalVelocity_IsbL-0250_RLatLon0.09_PT083H.grib2 2026-04-15 15:04 574K
20260415T12Z_MSC_RDPS_VerticalVelocity_IsbL-0500_RLatLon0.09_PT083H.grib2 2026-04-15 15:04 671K
20260415T12Z_MSC_RDPS_VerticalVelocity_IsbL-0700_RLatLon0.09_PT083H.grib2 2026-04-15 15:04 588K
20260415T12Z_MSC_RDPS_VerticalVelocity_IsbL-0850_RLatLon0.09_PT083H.grib2 2026-04-15 15:04 689K
20260415T12Z_MSC_RDPS_VerticalWindShear_EtaL-6500_RLatLon0.09_PT083H.grib2 2026-04-15 15:04 1.2M
20260415T12Z_MSC_RDPS_WindChill_Sfc_RLatLon0.09_PT083H.grib2 2026-04-15 15:04 1.1M
20260415T12Z_MSC_RDPS_WindDir_AGL-10m_RLatLon0.09_PT083H.grib2 2026-04-15 15:04 943K
20260415T12Z_MSC_RDPS_WindDir_AGL-120m_RLatLon0.09_PT083H.grib2 2026-04-15 15:04 589K
20260415T12Z_MSC_RDPS_WindDir_AGL-40m_RLatLon0.09_PT083H.grib2 2026-04-15 15:04 612K
20260415T12Z_MSC_RDPS_WindDir_AGL-80m_RLatLon0.09_PT083H.grib2 2026-04-15 15:04 598K
20260415T12Z_MSC_RDPS_WindDir_IsbL-0001_RLatLon0.09_PT083H.grib2 2026-04-15 15:04 253K
20260415T12Z_MSC_RDPS_WindDir_IsbL-0005_RLatLon0.09_PT083H.grib2 2026-04-15 15:04 349K
20260415T12Z_MSC_RDPS_WindDir_IsbL-0010_RLatLon0.09_PT083H.grib2 2026-04-15 15:04 373K
20260415T12Z_MSC_RDPS_WindDir_IsbL-0020_RLatLon0.09_PT083H.grib2 2026-04-15 15:04 381K
20260415T12Z_MSC_RDPS_WindDir_IsbL-0030_RLatLon0.09_PT083H.grib2 2026-04-15 15:04 381K
20260415T12Z_MSC_RDPS_WindDir_IsbL-0050_RLatLon0.09_PT083H.grib2 2026-04-15 15:04 402K
20260415T12Z_MSC_RDPS_WindDir_IsbL-0100_RLatLon0.09_PT083H.grib2 2026-04-15 15:04 387K
20260415T12Z_MSC_RDPS_WindDir_IsbL-0150_RLatLon0.09_PT083H.grib2 2026-04-15 15:04 382K
20260415T12Z_MSC_RDPS_WindDir_IsbL-0175_RLatLon0.09_PT083H.grib2 2026-04-15 15:04 411K
20260415T12Z_MSC_RDPS_WindDir_IsbL-0200_RLatLon0.09_PT083H.grib2 2026-04-15 15:04 430K
20260415T12Z_MSC_RDPS_WindDir_IsbL-0225_RLatLon0.09_PT083H.grib2 2026-04-15 15:04 433K
20260415T12Z_MSC_RDPS_WindDir_IsbL-0250_RLatLon0.09_PT083H.grib2 2026-04-15 15:04 431K
20260415T12Z_MSC_RDPS_WindDir_IsbL-0275_RLatLon0.09_PT083H.grib2 2026-04-15 15:04 445K
20260415T12Z_MSC_RDPS_WindDir_IsbL-0300_RLatLon0.09_PT083H.grib2 2026-04-15 15:04 441K
20260415T12Z_MSC_RDPS_WindDir_IsbL-0350_RLatLon0.09_PT083H.grib2 2026-04-15 15:04 461K
20260415T12Z_MSC_RDPS_WindDir_IsbL-0400_RLatLon0.09_PT083H.grib2 2026-04-15 15:04 477K
20260415T12Z_MSC_RDPS_WindDir_IsbL-0450_RLatLon0.09_PT083H.grib2 2026-04-15 15:04 499K
20260415T12Z_MSC_RDPS_WindDir_IsbL-0500_RLatLon0.09_PT083H.grib2 2026-04-15 15:04 521K
20260415T12Z_MSC_RDPS_WindDir_IsbL-0550_RLatLon0.09_PT083H.grib2 2026-04-15 15:04 550K
20260415T12Z_MSC_RDPS_WindDir_IsbL-0600_RLatLon0.09_PT083H.grib2 2026-04-15 15:04 583K
20260415T12Z_MSC_RDPS_WindDir_IsbL-0650_RLatLon0.09_PT083H.grib2 2026-04-15 15:04 628K
20260415T12Z_MSC_RDPS_WindDir_IsbL-0700_RLatLon0.09_PT083H.grib2 2026-04-15 15:04 674K
20260415T12Z_MSC_RDPS_WindDir_IsbL-0750_RLatLon0.09_PT083H.grib2 2026-04-15 15:04 722K
20260415T12Z_MSC_RDPS_WindDir_IsbL-0800_RLatLon0.09_PT083H.grib2 2026-04-15 15:04 776K
20260415T12Z_MSC_RDPS_WindDir_IsbL-0850_RLatLon0.09_PT083H.grib2 2026-04-15 15:04 843K
20260415T12Z_MSC_RDPS_WindDir_IsbL-0875_RLatLon0.09_PT083H.grib2 2026-04-15 15:04 872K
20260415T12Z_MSC_RDPS_WindDir_IsbL-0900_RLatLon0.09_PT083H.grib2 2026-04-15 15:04 889K
20260415T12Z_MSC_RDPS_WindDir_IsbL-0925_RLatLon0.09_PT083H.grib2 2026-04-15 15:04 891K
20260415T12Z_MSC_RDPS_WindDir_IsbL-0950_RLatLon0.09_PT083H.grib2 2026-04-15 15:04 887K
20260415T12Z_MSC_RDPS_WindDir_IsbL-0970_RLatLon0.09_PT083H.grib2 2026-04-15 15:04 891K
20260415T12Z_MSC_RDPS_WindDir_IsbL-0985_RLatLon0.09_PT083H.grib2 2026-04-15 15:04 901K
20260415T12Z_MSC_RDPS_WindDir_IsbL-1000_RLatLon0.09_PT083H.grib2 2026-04-15 15:04 916K
20260415T12Z_MSC_RDPS_WindDir_IsbL-1015_RLatLon0.09_PT083H.grib2 2026-04-15 15:04 935K
20260415T12Z_MSC_RDPS_WindGust-Max_AGL-10m_RLatLon0.09_PT083H.grib2 2026-04-15 15:04 953K
20260415T12Z_MSC_RDPS_WindGust-Min_AGL-10m_RLatLon0.09_PT083H.grib2 2026-04-15 15:04 933K
20260415T12Z_MSC_RDPS_WindGust_AGL-10m_RLatLon0.09_PT083H.grib2 2026-04-15 15:04 940K
20260415T12Z_MSC_RDPS_WindSpeed_AGL-10m_RLatLon0.09_PT083H.grib2 2026-04-15 15:04 845K
20260415T12Z_MSC_RDPS_WindSpeed_AGL-120m_RLatLon0.09_PT083H.grib2 2026-04-15 15:04 547K
20260415T12Z_MSC_RDPS_WindSpeed_AGL-40m_RLatLon0.09_PT083H.grib2 2026-04-15 15:04 553K
20260415T12Z_MSC_RDPS_WindSpeed_AGL-80m_RLatLon0.09_PT083H.grib2 2026-04-15 15:04 548K
20260415T12Z_MSC_RDPS_WindSpeed_IsbL-0001_RLatLon0.09_PT083H.grib2 2026-04-15 15:04 248K
20260415T12Z_MSC_RDPS_WindSpeed_IsbL-0005_RLatLon0.09_PT083H.grib2 2026-04-15 15:04 339K
20260415T12Z_MSC_RDPS_WindSpeed_IsbL-0010_RLatLon0.09_PT083H.grib2 2026-04-15 15:04 349K
20260415T12Z_MSC_RDPS_WindSpeed_IsbL-0020_RLatLon0.09_PT083H.grib2 2026-04-15 15:04 328K
20260415T12Z_MSC_RDPS_WindSpeed_IsbL-0030_RLatLon0.09_PT083H.grib2 2026-04-15 15:04 327K
20260415T12Z_MSC_RDPS_WindSpeed_IsbL-0050_RLatLon0.09_PT083H.grib2 2026-04-15 15:04 364K
20260415T12Z_MSC_RDPS_WindSpeed_IsbL-0100_RLatLon0.09_PT083H.grib2 2026-04-15 15:04 475K
20260415T12Z_MSC_RDPS_WindSpeed_IsbL-0150_RLatLon0.09_PT083H.grib2 2026-04-15 15:04 367K
20260415T12Z_MSC_RDPS_WindSpeed_IsbL-0175_RLatLon0.09_PT083H.grib2 2026-04-15 15:04 397K
20260415T12Z_MSC_RDPS_WindSpeed_IsbL-0200_RLatLon0.09_PT083H.grib2 2026-04-15 15:04 419K
20260415T12Z_MSC_RDPS_WindSpeed_IsbL-0225_RLatLon0.09_PT083H.grib2 2026-04-15 15:04 446K
20260415T12Z_MSC_RDPS_WindSpeed_IsbL-0250_RLatLon0.09_PT083H.grib2 2026-04-15 15:04 449K
20260415T12Z_MSC_RDPS_WindSpeed_IsbL-0275_RLatLon0.09_PT083H.grib2 2026-04-15 15:04 462K
20260415T12Z_MSC_RDPS_WindSpeed_IsbL-0300_RLatLon0.09_PT083H.grib2 2026-04-15 15:04 457K
20260415T12Z_MSC_RDPS_WindSpeed_IsbL-0350_RLatLon0.09_PT083H.grib2 2026-04-15 15:04 463K
20260415T12Z_MSC_RDPS_WindSpeed_IsbL-0400_RLatLon0.09_PT083H.grib2 2026-04-15 15:04 467K
20260415T12Z_MSC_RDPS_WindSpeed_IsbL-0450_RLatLon0.09_PT083H.grib2 2026-04-15 15:04 470K
20260415T12Z_MSC_RDPS_WindSpeed_IsbL-0500_RLatLon0.09_PT083H.grib2 2026-04-15 15:04 470K
20260415T12Z_MSC_RDPS_WindSpeed_IsbL-0550_RLatLon0.09_PT083H.grib2 2026-04-15 15:04 453K
20260415T12Z_MSC_RDPS_WindSpeed_IsbL-0600_RLatLon0.09_PT083H.grib2 2026-04-15 15:04 463K
20260415T12Z_MSC_RDPS_WindSpeed_IsbL-0650_RLatLon0.09_PT083H.grib2 2026-04-15 15:04 604K
20260415T12Z_MSC_RDPS_WindSpeed_IsbL-0700_RLatLon0.09_PT083H.grib2 2026-04-15 15:04 629K
20260415T12Z_MSC_RDPS_WindSpeed_IsbL-0750_RLatLon0.09_PT083H.grib2 2026-04-15 15:04 660K
20260415T12Z_MSC_RDPS_WindSpeed_IsbL-0800_RLatLon0.09_PT083H.grib2 2026-04-15 15:04 707K
20260415T12Z_MSC_RDPS_WindSpeed_IsbL-0850_RLatLon0.09_PT083H.grib2 2026-04-15 15:04 767K
20260415T12Z_MSC_RDPS_WindSpeed_IsbL-0875_RLatLon0.09_PT083H.grib2 2026-04-15 15:04 792K
20260415T12Z_MSC_RDPS_WindSpeed_IsbL-0900_RLatLon0.09_PT083H.grib2 2026-04-15 15:04 809K
20260415T12Z_MSC_RDPS_WindSpeed_IsbL-0925_RLatLon0.09_PT083H.grib2 2026-04-15 15:04 817K
20260415T12Z_MSC_RDPS_WindSpeed_IsbL-0950_RLatLon0.09_PT083H.grib2 2026-04-15 15:04 816K
20260415T12Z_MSC_RDPS_WindSpeed_IsbL-0970_RLatLon0.09_PT083H.grib2 2026-04-15 15:04 862K
20260415T12Z_MSC_RDPS_WindSpeed_IsbL-0985_RLatLon0.09_PT083H.grib2 2026-04-15 15:04 857K
20260415T12Z_MSC_RDPS_WindSpeed_IsbL-1000_RLatLon0.09_PT083H.grib2 2026-04-15 15:04 854K
20260415T12Z_MSC_RDPS_WindSpeed_IsbL-1015_RLatLon0.09_PT083H.grib2 2026-04-15 15:04 847K
20260415T12Z_MSC_RDPS_WindU_AGL-10m_RLatLon0.09_PT083H.grib2 2026-04-15 15:04 386K
20260415T12Z_MSC_RDPS_WindU_AGL-120m_RLatLon0.09_PT083H.grib2 2026-04-15 15:04 434K
20260415T12Z_MSC_RDPS_WindU_AGL-40m_RLatLon0.09_PT083H.grib2 2026-04-15 15:04 422K
20260415T12Z_MSC_RDPS_WindU_AGL-80m_RLatLon0.09_PT083H.grib2 2026-04-15 15:04 436K
20260415T12Z_MSC_RDPS_WindU_IsbL-0001_RLatLon0.09_PT083H.grib2 2026-04-15 15:04 290K
20260415T12Z_MSC_RDPS_WindU_IsbL-0005_RLatLon0.09_PT083H.grib2 2026-04-15 15:04 332K
20260415T12Z_MSC_RDPS_WindU_IsbL-0010_RLatLon0.09_PT083H.grib2 2026-04-15 15:04 313K
20260415T12Z_MSC_RDPS_WindU_IsbL-0020_RLatLon0.09_PT083H.grib2 2026-04-15 15:04 331K
20260415T12Z_MSC_RDPS_WindU_IsbL-0030_RLatLon0.09_PT083H.grib2 2026-04-15 15:04 255K
20260415T12Z_MSC_RDPS_WindU_IsbL-0050_RLatLon0.09_PT083H.grib2 2026-04-15 15:04 358K
20260415T12Z_MSC_RDPS_WindU_IsbL-0100_RLatLon0.09_PT083H.grib2 2026-04-15 15:04 334K
20260415T12Z_MSC_RDPS_WindU_IsbL-0150_RLatLon0.09_PT083H.grib2 2026-04-15 15:04 385K
20260415T12Z_MSC_RDPS_WindU_IsbL-0175_RLatLon0.09_PT083H.grib2 2026-04-15 15:04 414K
20260415T12Z_MSC_RDPS_WindU_IsbL-0200_RLatLon0.09_PT083H.grib2 2026-04-15 15:04 433K
20260415T12Z_MSC_RDPS_WindU_IsbL-0225_RLatLon0.09_PT083H.grib2 2026-04-15 15:04 438K
20260415T12Z_MSC_RDPS_WindU_IsbL-0250_RLatLon0.09_PT083H.grib2 2026-04-15 15:04 340K
20260415T12Z_MSC_RDPS_WindU_IsbL-0275_RLatLon0.09_PT083H.grib2 2026-04-15 15:04 351K
20260415T12Z_MSC_RDPS_WindU_IsbL-0300_RLatLon0.09_PT083H.grib2 2026-04-15 15:04 345K
20260415T12Z_MSC_RDPS_WindU_IsbL-0350_RLatLon0.09_PT083H.grib2 2026-04-15 15:04 349K
20260415T12Z_MSC_RDPS_WindU_IsbL-0400_RLatLon0.09_PT083H.grib2 2026-04-15 15:04 352K
20260415T12Z_MSC_RDPS_WindU_IsbL-0450_RLatLon0.09_PT083H.grib2 2026-04-15 15:04 355K
20260415T12Z_MSC_RDPS_WindU_IsbL-0500_RLatLon0.09_PT083H.grib2 2026-04-15 15:04 357K
20260415T12Z_MSC_RDPS_WindU_IsbL-0550_RLatLon0.09_PT083H.grib2 2026-04-15 15:04 359K
20260415T12Z_MSC_RDPS_WindU_IsbL-0600_RLatLon0.09_PT083H.grib2 2026-04-15 15:04 471K
20260415T12Z_MSC_RDPS_WindU_IsbL-0650_RLatLon0.09_PT083H.grib2 2026-04-15 15:04 491K
20260415T12Z_MSC_RDPS_WindU_IsbL-0700_RLatLon0.09_PT083H.grib2 2026-04-15 15:04 514K
20260415T12Z_MSC_RDPS_WindU_IsbL-0750_RLatLon0.09_PT083H.grib2 2026-04-15 15:04 540K
20260415T12Z_MSC_RDPS_WindU_IsbL-0800_RLatLon0.09_PT083H.grib2 2026-04-15 15:04 579K
20260415T12Z_MSC_RDPS_WindU_IsbL-0850_RLatLon0.09_PT083H.grib2 2026-04-15 15:04 629K
20260415T12Z_MSC_RDPS_WindU_IsbL-0875_RLatLon0.09_PT083H.grib2 2026-04-15 15:04 648K
20260415T12Z_MSC_RDPS_WindU_IsbL-0900_RLatLon0.09_PT083H.grib2 2026-04-15 15:04 661K
20260415T12Z_MSC_RDPS_WindU_IsbL-0925_RLatLon0.09_PT083H.grib2 2026-04-15 15:04 667K
20260415T12Z_MSC_RDPS_WindU_IsbL-0950_RLatLon0.09_PT083H.grib2 2026-04-15 15:04 663K
20260415T12Z_MSC_RDPS_WindU_IsbL-0970_RLatLon0.09_PT083H.grib2 2026-04-15 15:04 661K
20260415T12Z_MSC_RDPS_WindU_IsbL-0985_RLatLon0.09_PT083H.grib2 2026-04-15 15:04 655K
20260415T12Z_MSC_RDPS_WindU_IsbL-1000_RLatLon0.09_PT083H.grib2 2026-04-15 15:04 654K
20260415T12Z_MSC_RDPS_WindU_IsbL-1015_RLatLon0.09_PT083H.grib2 2026-04-15 15:04 649K
20260415T12Z_MSC_RDPS_WindV_AGL-10m_RLatLon0.09_PT083H.grib2 2026-04-15 15:04 430K
20260415T12Z_MSC_RDPS_WindV_AGL-120m_RLatLon0.09_PT083H.grib2 2026-04-15 15:04 413K
20260415T12Z_MSC_RDPS_WindV_AGL-40m_RLatLon0.09_PT083H.grib2 2026-04-15 15:04 533K
20260415T12Z_MSC_RDPS_WindV_AGL-80m_RLatLon0.09_PT083H.grib2 2026-04-15 15:04 414K
20260415T12Z_MSC_RDPS_WindV_IsbL-0001_RLatLon0.09_PT083H.grib2 2026-04-15 15:04 265K
20260415T12Z_MSC_RDPS_WindV_IsbL-0005_RLatLon0.09_PT083H.grib2 2026-04-15 15:04 332K
20260415T12Z_MSC_RDPS_WindV_IsbL-0010_RLatLon0.09_PT083H.grib2 2026-04-15 15:04 344K
20260415T12Z_MSC_RDPS_WindV_IsbL-0020_RLatLon0.09_PT083H.grib2 2026-04-15 15:04 323K
20260415T12Z_MSC_RDPS_WindV_IsbL-0030_RLatLon0.09_PT083H.grib2 2026-04-15 15:04 325K
20260415T12Z_MSC_RDPS_WindV_IsbL-0050_RLatLon0.09_PT083H.grib2 2026-04-15 15:04 357K
20260415T12Z_MSC_RDPS_WindV_IsbL-0100_RLatLon0.09_PT083H.grib2 2026-04-15 15:04 421K
20260415T12Z_MSC_RDPS_WindV_IsbL-0150_RLatLon0.09_PT083H.grib2 2026-04-15 15:04 383K
20260415T12Z_MSC_RDPS_WindV_IsbL-0175_RLatLon0.09_PT083H.grib2 2026-04-15 15:04 412K
20260415T12Z_MSC_RDPS_WindV_IsbL-0200_RLatLon0.09_PT083H.grib2 2026-04-15 15:04 432K
20260415T12Z_MSC_RDPS_WindV_IsbL-0225_RLatLon0.09_PT083H.grib2 2026-04-15 15:04 340K
20260415T12Z_MSC_RDPS_WindV_IsbL-0250_RLatLon0.09_PT083H.grib2 2026-04-15 15:04 340K
20260415T12Z_MSC_RDPS_WindV_IsbL-0275_RLatLon0.09_PT083H.grib2 2026-04-15 15:04 352K
20260415T12Z_MSC_RDPS_WindV_IsbL-0300_RLatLon0.09_PT083H.grib2 2026-04-15 15:04 346K
20260415T12Z_MSC_RDPS_WindV_IsbL-0350_RLatLon0.09_PT083H.grib2 2026-04-15 15:04 350K
20260415T12Z_MSC_RDPS_WindV_IsbL-0400_RLatLon0.09_PT083H.grib2 2026-04-15 15:04 352K
20260415T12Z_MSC_RDPS_WindV_IsbL-0450_RLatLon0.09_PT083H.grib2 2026-04-15 15:04 355K
20260415T12Z_MSC_RDPS_WindV_IsbL-0500_RLatLon0.09_PT083H.grib2 2026-04-15 15:04 458K
20260415T12Z_MSC_RDPS_WindV_IsbL-0550_RLatLon0.09_PT083H.grib2 2026-04-15 15:04 459K
20260415T12Z_MSC_RDPS_WindV_IsbL-0600_RLatLon0.09_PT083H.grib2 2026-04-15 15:04 469K
20260415T12Z_MSC_RDPS_WindV_IsbL-0650_RLatLon0.09_PT083H.grib2 2026-04-15 15:04 489K
20260415T12Z_MSC_RDPS_WindV_IsbL-0700_RLatLon0.09_PT083H.grib2 2026-04-15 15:04 510K
20260415T12Z_MSC_RDPS_WindV_IsbL-0750_RLatLon0.09_PT083H.grib2 2026-04-15 15:04 536K
20260415T12Z_MSC_RDPS_WindV_IsbL-0800_RLatLon0.09_PT083H.grib2 2026-04-15 15:04 574K
20260415T12Z_MSC_RDPS_WindV_IsbL-0850_RLatLon0.09_PT083H.grib2 2026-04-15 15:04 624K
20260415T12Z_MSC_RDPS_WindV_IsbL-0875_RLatLon0.09_PT083H.grib2 2026-04-15 15:04 645K
20260415T12Z_MSC_RDPS_WindV_IsbL-0900_RLatLon0.09_PT083H.grib2 2026-04-15 15:04 652K
20260415T12Z_MSC_RDPS_WindV_IsbL-0925_RLatLon0.09_PT083H.grib2 2026-04-15 15:04 657K
20260415T12Z_MSC_RDPS_WindV_IsbL-0950_RLatLon0.09_PT083H.grib2 2026-04-15 15:04 653K
20260415T12Z_MSC_RDPS_WindV_IsbL-0970_RLatLon0.09_PT083H.grib2 2026-04-15 15:04 650K
20260415T12Z_MSC_RDPS_WindV_IsbL-0985_RLatLon0.09_PT083H.grib2 2026-04-15 15:04 648K
20260415T12Z_MSC_RDPS_WindV_IsbL-1000_RLatLon0.09_PT083H.grib2 2026-04-15 15:04 784K
20260415T12Z_MSC_RDPS_WindV_IsbL-1015_RLatLon0.09_PT083H.grib2 2026-04-15 15:04 779K